Hourly Data Report for November 16, 2017

All times are specified in Local Standard Time (LST). Add 1 hour to adjust for Daylight Saving Time where and when it is observed.

GIMLI CLIMATE
MANITOBA

50°38'00.000" N
97°03'00.000" W
230.10 m
5031042
71748
PGH

Download Data

Hourly Data (November 2017)
Hourly Data Report for November 16, 2017
Temp Definition
°C
Dew Point Temp Definition
°C
Rel Hum Definition
%
Wind Dir Definition
10's deg

Wind Spd Definition
km/h
Visibility Definition
km
Stn Press Definition
kPa
Hmdx Definition


Wind Chill Definition


Weather Definition


TIME
00:00 -8.6 -11.7 78 7 11   99.79   -14 LegendNANA
01:00 -8.6 -11.7 78 9 8   99.78   -13 LegendNANA
02:00 -8.9 -12.1 78 9 10   99.76   -14 LegendNANA
03:00 -9.2 -12.1 79 9 12   99.72   -15 LegendNANA
04:00 -9.0 -11.8 80 12 10   99.65   -14 LegendNANA
05:00 -8.8 -11.6 80 11 16   99.55   -16 LegendNANA
06:00 -8.9 -11.7 80 13 14   99.55   -15 LegendNANA
07:00 -8.6 -11.3 81 14 15   99.49   -15 LegendNANA
08:00 -8.9 -11.5 81 14 15   99.40   -15 LegendNANA
09:00 -8.3 -10.9 82 14 19   99.28   -16 LegendNANA
10:00 -7.9 -10.6 81 14 21   99.21   -15 LegendNANA
11:00 -7.2 -10.2 80 14 22   99.12   -15 LegendNANA
12:00 -6.3 -9.4 79 14 22   98.94   -14 LegendNANA
13:00 -6.1 -9.3 78 13 24   98.77   -14 LegendNANA
14:00 -5.8 -9.2 77 15 27   98.61   -14 LegendNANA
15:00 -5.5 -8.8 78 14 29   98.47   -14 LegendNANA
16:00 -5.2 -8.3 78 14 25   98.31   -13 LegendNANA
17:00 -4.7 -8.0 78 13 26   98.15   -12 LegendNANA
18:00 -4.2 -7.6 77 14 32   97.98   -12 LegendNANA
19:00 -3.9 -7.4 77 14 28   97.80   -11 LegendNANA
20:00 -3.4 -7.0 76 15 29   97.72   -11 LegendNANA
21:00 -3.1 -6.6 77 15 28   97.57   -10 LegendNANA
22:00 -2.7 -6.4 76 16 28   97.45   -10 LegendNANA
23:00 -1.7 -5.4 76 17 27   97.33   -8 LegendNANA

Notes on Data Quality.

Legend

  • E = Estimated
  • M = Missing
  • NA = Not Available
  • ‡ = Partner data that is not subject to review by the National Climate Archives
Date modified: